| time (UTC) | temp F | wind direction | speed knots | gust knots | rain 1hr in | rain 24hr in | rain mn in | humidity % | barometer mb |
| 20260508210128 | 72 | 229 | 3.5 | 7.0 | 0.00 | 0.23 | 0.06 | 84 | 135.0 |
| 20260508205558 | 72 | 240 | 3.5 | 7.0 | 0.00 | 0.23 | 0.06 | 84 | 291.7 |
| 20260508205102 | 72 | 245 | 3.5 | 7.0 | 0.00 | 0.23 | 0.06 | 84 | 291.7 |
| 20260508204558 | 72 | 214 | 2.6 | 6.1 | 0.00 | 0.23 | 0.06 | 84 | 456.3 |
| 20260508204058 | 72 | 217 | 2.6 | 7.0 | 0.00 | 0.23 | 0.06 | 84 | 818.6 |
| 20260508203601 | 72 | 213 | 3.5 | 7.0 | 0.00 | 0.23 | 0.06 | 84 | 2214.8 |
| 20260508203059 | 72 | 215 | 3.5 | 6.1 | 0.00 | 0.23 | 0.06 | 84 | 1480.7 |
| 20260508202559 | 72 | 218 | 3.5 | 7.8 | 0.00 | 0.23 | 0.06 | 84 | 1056.6 |
| 20260508202101 | 72 | 200 | 2.6 | 7.8 | 0.00 | 0.23 | 0.06 | 85 | 321.6 |
| 20260508201559 | 72 | 242 | 5.2 | 7.8 | 0.00 | 0.23 | 0.06 | 85 | 818.6 |
| 20260508201058 | 72 | 265 | 3.5 | 5.2 | 0.00 | 0.23 | 0.06 | 85 | 1625.5 |
| 20260508200558 | 72 | 210 | 2.6 | 5.2 | 0.00 | 0.23 | 0.06 | 85 | 1811.6 |
| 20260508200103 | 72 | 214 | 2.6 | 5.2 | 0.00 | 0.23 | 0.06 | 85 | 622.0 |
| 20260508195601 | 72 | 225 | 0.9 | 6.1 | 0.00 | 0.23 | 0.06 | 85 | 1811.6 |
| 20260508195101 | 72 | 228 | 2.6 | 6.1 | 0.00 | 0.23 | 0.06 | 85 | 1449.7 |
| 20260508194558 | 72 | 223 | 3.5 | 12.2 | 0.00 | 0.23 | 0.06 | 85 | 787.6 |
| 20260508194101 | 72 | 229 | 6.1 | 12.2 | 0.00 | 0.23 | 0.06 | 85 | 229.5 |
| 20260508193600 | 72 | 196 | 1.7 | 6.1 | 0.00 | 0.23 | 0.06 | 85 | 1366.9 |
| 20260508193110 | 72 | 209 | 2.6 | 6.1 | 0.00 | 0.23 | 0.06 | 85 | 1966.7 |
| 20260508192558 | 72 | 219 | 1.7 | 6.1 | 0.00 | 0.23 | 0.06 | 86 | 1718.5 |
| 20260508192101 | 72 | 230 | 1.7 | 5.2 | 0.00 | 0.23 | 0.06 | 86 | 653.0 |
| 20260508191559 | 72 | 164 | 0.9 | 5.2 | 0.00 | 0.23 | 0.06 | 86 | 963.5 |
| 20260508191101 | 72 | 248 | 1.7 | 5.2 | 0.00 | 0.23 | 0.06 | 86 | 1718.5 |
| 20260508190559 | 72 | 209 | 2.6 | 5.2 | 0.00 | 0.23 | 0.06 | 86 | 487.3 |
| 20260508190104 | 72 | 250 | 2.6 | 6.1 | 0.00 | 0.23 | 0.06 | 86 | 146.5 |
| 20260508185558 | 72 | 221 | 2.6 | 6.1 | 0.00 | 0.23 | 0.06 | 86 | 1553.1 |
| 20260508185100 | 72 | 173 | 1.7 | 7.8 | 0.00 | 0.23 | 0.06 | 85 | 1873.6 |
| 20260508184644 | 72 | 208 | 2.6 | 9.6 | 0.00 | 0.23 | 0.06 | 85 | 291.7 |
| 20260508184059 | 72 | 209 | 5.2 | 9.6 | 0.00 | 0.23 | 0.06 | 85 | 570.2 |
| 20260508183559 | 72 | 161 | 3.5 | 7.8 | 0.00 | 0.23 | 0.06 | 85 | 404.5 |
| 20260508183058 | 72 | 202 | 3.5 | 8.7 | 0.00 | 0.23 | 0.06 | 85 | 725.5 |
| 20260508182558 | 72 | 221 | 4.3 | 8.7 | 0.00 | 0.23 | 0.06 | 85 | 1708.2 |
| 20260508182058 | 72 | 197 | 4.3 | 8.7 | 0.00 | 0.23 | 0.06 | 85 | 146.5 |
| 20260508181608 | 72 | 223 | 2.6 | 4.3 | 0.00 | 0.23 | 0.06 | 85 | 953.2 |
| 20260508181101 | 72 | 186 | 2.6 | 7.8 | 0.00 | 0.23 | 0.06 | 85 | 41.5 |
| 20260508180601 | 72 | 184 | 4.3 | 8.7 | 0.00 | 0.23 | 0.06 | 85 | 973.8 |
| 20260508175601 | 72 | 217 | 5.2 | 8.7 | 0.00 | 0.23 | 0.06 | 85 | 880.7 |
| 20260508175059 | 72 | 248 | 2.6 | 8.7 | 0.00 | 0.23 | 0.06 | 85 | 901.4 |
| 20260508174600 | 72 | 229 | 3.5 | 7.0 | 0.00 | 0.23 | 0.06 | 85 | 1615.1 |
| 20260508174101 | 72 | 218 | 3.5 | 6.1 | 0.00 | 0.23 | 0.06 | 85 | 622.0 |
| 20260508173603 | 72 | 246 | 2.6 | 7.0 | 0.00 | 0.23 | 0.06 | 86 | 973.8 |
| 20260508173101 | 72 | 185 | 1.7 | 7.0 | 0.00 | 0.23 | 0.06 | 86 | 456.3 |
| 20260508172601 | 72 | 221 | 4.3 | 7.8 | 0.00 | 0.23 | 0.06 | 86 | 2142.4 |
| 20260508172101 | 72 | 247 | 5.2 | 7.8 | 0.00 | 0.23 | 0.06 | 86 | 51.9 |
| 20260508171600 | 72 | 204 | 2.6 | 7.0 | 0.01 | 0.23 | 0.06 | 86 | 622.0 |
| 20260508171104 | 72 | 207 | 1.7 | 6.1 | 0.01 | 0.23 | 0.06 | 86 | 63.5 |
| 20260508170601 | 72 | 240 | 2.6 | 6.1 | 0.02 | 0.23 | 0.06 | 87 | 53.1 |
| 20260508170059 | 71 | 217 | 0.9 | 4.3 | 0.01 | 0.22 | 0.05 | 87 | 1398.0 |
| 20260508165600 | 71 | 250 | 1.7 | 4.3 | 0.01 | 0.22 | 0.05 | 87 | 818.6 |
| 20260508165100 | 71 | 257 | 1.7 | 3.5 | 0.01 | 0.22 | 0.05 | 87 | 632.3 |
| 20260508164605 | 72 | 278 | 0.0 | 4.3 | 0.01 | 0.22 | 0.05 | 87 | 1201.4 |
| 20260508164102 | 72 | 225 | 1.7 | 5.2 | 0.01 | 0.22 | 0.05 | 87 | 207.6 |
| 20260508163605 | 72 | 217 | 1.7 | 7.0 | 0.01 | 0.22 | 0.05 | 87 | 51.9 |
| 20260508163101 | 72 | 220 | 3.5 | 7.0 | 0.01 | 0.22 | 0.05 | 87 | 219.2 |
| 20260508162601 | 72 | 224 | 0.9 | 5.2 | 0.01 | 0.22 | 0.05 | 87 | 539.1 |
| 20260508162103 | 72 | 238 | 1.7 | 5.2 | 0.02 | 0.22 | 0.05 | 86 | 1780.6 |
| 20260508161600 | 72 | 219 | 1.7 | 5.2 | 0.01 | 0.22 | 0.04 | 86 | 63.5 |
| 20260508161101 | 72 | 227 | 1.7 | 7.8 | 0.02 | 0.22 | 0.04 | 86 | 41.5 |
| 20260508160559 | 72 | 178 | 2.6 | 7.8 | 0.01 | 0.21 | 0.03 | 86 | 963.5 |
| 20260508160058 | 72 | 211 | 3.5 | 7.8 | 0.02 | 0.21 | 0.03 | 86 | 1780.6 |
| 20260508155558 | 72 | 229 | 1.7 | 7.8 | 0.02 | 0.21 | 0.03 | 87 | 953.2 |
| 20260508155101 | 72 | 250 | 2.6 | 4.3 | 0.02 | 0.21 | 0.03 | 87 | 1956.3 |
| 20260508154559 | 72 | 219 | 0.0 | 5.2 | 0.02 | 0.21 | 0.03 | 87 | 1801.2 |
| 20260508154101 | 72 | 223 | 2.6 | 8.7 | 0.03 | 0.21 | 0.03 | 87 | 1222.1 |
| 20260508153558 | 72 | 225 | 4.3 | 8.7 | 0.03 | 0.21 | 0.03 | 87 | 891.1 |
| 20260508153100 | 72 | 248 | 1.7 | 5.2 | 0.03 | 0.21 | 0.03 | 87 | 1532.4 |
| 20260508152558 | 72 | 223 | 0.9 | 4.3 | 0.03 | 0.21 | 0.03 | 87 | 1532.4 |
| 20260508152101 | 72 | 217 | 1.7 | 4.3 | 0.02 | 0.20 | 0.03 | 87 | 2132.1 |
| 20260508151604 | 72 | 266 | 0.9 | 3.5 | 0.02 | 0.20 | 0.03 | 87 | 1646.2 |
| 20260508151058 | 72 | 266 | 0.9 | 3.5 | 0.01 | 0.19 | 0.02 | 87 | 63.5 |
| 20260508150558 | 72 | 238 | 1.7 | 4.3 | 0.01 | 0.19 | 0.02 | 87 | 312.4 |
| 20260508150106 | 72 | 205 | 1.7 | 6.1 | 0.01 | 0.18 | 0.01 | 87 | 1284.2 |
| 20260508145601 | 72 | 271 | 2.6 | 6.1 | 0.01 | 0.18 | 0.01 | 87 | 901.4 |
| 20260508145104 | 72 | 228 | 2.6 | 7.0 | 0.01 | 0.18 | 0.01 | 87 | 1366.9 |
| 20260508144636 | 72 | 229 | 3.5 | 7.0 | 0.01 | 0.18 | 0.01 | 87 | 1532.4 |
| 20260508144058 | 72 | 199 | 2.6 | 5.2 | 0.00 | 0.18 | 0.00 | 87 | 1201.4 |
| 20260508143558 | 72 | 211 | 2.6 | 4.3 | 0.00 | 0.18 | 0.00 | 87 | 622.0 |
| 20260508143114 | 72 | 211 | 2.6 | 4.3 | 0.01 | 0.18 | 0.00 | 87 | 973.8 |
| 20260508142557 | 72 | 265 | 2.6 | 7.0 | 0.03 | 0.18 | 0.00 | 87 | 207.6 |
| 20260508142058 | 72 | 239 | 1.7 | 7.0 | 0.03 | 0.18 | 0.00 | 87 | 870.4 |
| 20260508141608 | 72 | 248 | 2.6 | 7.0 | 0.03 | 0.18 | 0.00 | 87 | 653.0 |
| 20260508141102 | 72 | 205 | 2.6 | 6.1 | 0.03 | 0.18 | 0.00 | 87 | 2039.1 |
| 20260508140557 | 71 | 249 | 2.6 | 5.2 | 0.03 | 0.18 | 0.00 | 87 | 125.8 |
| 20260508140058 | 71 | 257 | 1.7 | 5.2 | 0.03 | 0.17 | 0.00 | 87 | 311.3 |
| 20260508135601 | 71 | 229 | 2.6 | 5.2 | 0.03 | 0.17 | 0.17 | 87 | 1977.0 |
| 20260508135100 | 71 | 226 | 1.7 | 6.1 | 0.03 | 0.17 | 0.17 | 87 | 145.3 |
| 20260508134601 | 71 | 190 | 2.6 | 10.4 | 0.03 | 0.17 | 0.17 | 88 | 1470.4 |
| 20260508134058 | 71 | 180 | 2.6 | 10.4 | 0.03 | 0.17 | 0.17 | 88 | 715.1 |
| 20260508133558 | 71 | 193 | 1.7 | 5.2 | 0.03 | 0.17 | 0.17 | 88 | 622.0 |
| 20260508133120 | 71 | 202 | 0.9 | 1.7 | 0.03 | 0.16 | 0.16 | 88 | 5.8 |
| 20260508132558 | 71 | 252 | 0.0 | 1.7 | 0.01 | 0.14 | 0.14 | 88 | 1284.2 |
| 20260508132058 | 71 | 0 | 0.9 | 4.3 | 0.01 | 0.14 | 0.14 | 88 | 1718.5 |
| 20260508131559 | 71 | 287 | 0.9 | 4.3 | 0.01 | 0.14 | 0.14 | 88 | 1387.6 |
| 20260508131100 | 71 | 293 | 0.9 | 3.5 | 0.01 | 0.14 | 0.14 | 87 | 373.4 |
| 20260508130600 | 71 | 161 | 1.7 | 3.5 | 0.01 | 0.14 | 0.14 | 87 | 1728.9 |
| 20260508130103 | 71 | 289 | 0.9 | 5.2 | 0.00 | 0.14 | 0.14 | 87 | 963.5 |
| 20260508125558 | 71 | 304 | 1.7 | 5.2 | 0.00 | 0.14 | 0.14 | 87 | 322.8 |
| 20260508125102 | 71 | 296 | 2.6 | 3.5 | 0.00 | 0.14 | 0.14 | 87 | 1884.0 |
| 20260508124558 | 71 | 288 | 0.9 | 3.5 | 0.00 | 0.14 | 0.14 | 87 | 53.1 |
| 20260508124059 | 71 | 213 | 2.6 | 7.0 | 0.00 | 0.13 | 0.13 | 87 | 1046.2 |
| 20260508123557 | 71 | 227 | 2.6 | 7.0 | 0.00 | 0.13 | 0.13 | 87 | 145.3 |
| 20260508123107 | 71 | 246 | 1.7 | 4.3 | 0.00 | 0.13 | 0.13 | 88 | 1387.6 |
| 20260508122559 | 71 | 298 | 0.9 | 6.1 | 0.00 | 0.13 | 0.13 | 88 | 228.3 |
| 20260508122057 | 71 | 223 | 1.7 | 6.1 | 0.01 | 0.13 | 0.13 | 88 | 321.6 |
| 20260508121605 | 71 | 219 | 2.6 | 6.1 | 0.01 | 0.13 | 0.13 | 88 | 1449.7 |
| 20260508121058 | 71 | 251 | 2.6 | 5.2 | 0.03 | 0.13 | 0.13 | 88 | 818.6 |
| 20260508120600 | 71 | 191 | 1.7 | 4.3 | 0.03 | 0.13 | 0.13 | 88 | 1801.2 |
| 20260508120059 | 71 | 242 | 1.7 | 4.3 | 0.03 | 0.13 | 0.13 | 88 | 1946.0 |
| 20260508115557 | 71 | 224 | 0.9 | 4.3 | 0.04 | 0.13 | 0.13 | 88 | 1790.9 |
| 20260508115058 | 71 | 175 | 1.7 | 5.2 | 0.05 | 0.13 | 0.13 | 88 | 973.8 |
| 20260508114558 | 71 | 190 | 0.9 | 5.2 | 0.05 | 0.13 | 0.13 | 88 | 1863.3 |
| 20260508114059 | 71 | 140 | 1.7 | 5.2 | 0.05 | 0.13 | 0.13 | 88 | 1884.0 |
| 20260508113601 | 71 | 9 | 0.0 | 1.7 | 0.05 | 0.13 | 0.13 | 88 | 1284.2 |
| 20260508113112 | 71 | 0 | 0.0 | 3.5 | 0.04 | 0.12 | 0.12 | 88 | 477.0 |
| 20260508112557 | 71 | 0 | 1.7 | 3.5 | 0.04 | 0.12 | 0.12 | 88 | 1315.2 |
| 20260508112059 | 71 | 267 | 0.0 | 2.6 | 0.03 | 0.11 | 0.11 | 88 | 42.7 |
| 20260508111606 | 71 | 0 | 0.0 | 2.6 | 0.03 | 0.11 | 0.11 | 88 | 870.4 |
| 20260508111057 | 71 | 241 | 0.9 | 2.6 | 0.03 | 0.10 | 0.10 | 88 | 229.5 |
| 20260508110557 | 71 | 345 | 0.9 | 1.7 | 0.02 | 0.09 | 0.09 | 88 | 735.8 |
| 20260508110101 | 71 | 352 | 0.0 | 1.7 | 0.02 | 0.09 | 0.09 | 88 | 1625.5 |
| 20260508105602 | 71 | 0 | 0.0 | 0.9 | 0.01 | 0.08 | 0.08 | 88 | 642.7 |
| 20260508105103 | 71 | 0 | 0.9 | 1.7 | 0.00 | 0.07 | 0.07 | 88 | 239.9 |
| 20260508104559 | 71 | 294 | 0.9 | 2.6 | 0.00 | 0.07 | 0.07 | 88 | 53.1 |
| 20260508104101 | 71 | 325 | 0.0 | 3.5 | 0.00 | 0.07 | 0.07 | 88 | 704.8 |
| 20260508103604 | 71 | 325 | 0.9 | 3.5 | 0.01 | 0.07 | 0.07 | 88 | 1470.4 |
| 20260508103102 | 71 | 236 | 0.9 | 4.3 | 0.01 | 0.07 | 0.07 | 88 | 1625.5 |
| 20260508102600 | 71 | 185 | 0.9 | 4.3 | 0.01 | 0.07 | 0.07 | 88 | 477.0 |
| 20260508102101 | 71 | 244 | 0.9 | 4.3 | 0.01 | 0.07 | 0.07 | 88 | 1304.9 |
| 20260508101616 | 71 | 172 | 1.7 | 3.5 | 0.01 | 0.07 | 0.07 | 88 | 642.7 |
| 20260508101102 | 71 | 0 | 0.0 | 1.7 | 0.01 | 0.07 | 0.07 | 88 | 207.6 |
| 20260508100601 | 71 | 349 | 0.0 | 1.7 | 0.01 | 0.07 | 0.07 | 88 | 1387.6 |
| 20260508100058 | 71 | 0 | 0.0 | 3.5 | 0.01 | 0.07 | 0.07 | 88 | 1460.0 |
| 20260508095602 | 71 | 0 | 0.9 | 3.5 | 0.02 | 0.07 | 0.07 | 88 | 818.6 |
| 20260508095101 | 71 | 0 | 0.9 | 1.7 | 0.02 | 0.07 | 0.07 | 88 | 1615.1 |
| 20260508094600 | 71 | 284 | 0.9 | 1.7 | 0.02 | 0.07 | 0.07 | 87 | 238.7 |
| 20260508094101 | 71 | 137 | 0.0 | 1.7 | 0.02 | 0.07 | 0.07 | 87 | 787.6 |
| 20260508093601 | 71 | 101 | 0.9 | 5.2 | 0.01 | 0.06 | 0.06 | 87 | 1046.2 |
| 20260508093059 | 71 | 0 | 1.7 | 5.2 | 0.01 | 0.06 | 0.06 | 87 | 1294.5 |
| 20260508092600 | 71 | 140 | 1.7 | 4.3 | 0.01 | 0.06 | 0.06 | 87 | 155.7 |
| 20260508092101 | 71 | 0 | 1.7 | 3.5 | 0.01 | 0.06 | 0.06 | 87 | 103.8 |
| 20260508091610 | 71 | 213 | 0.9 | 3.5 | 0.01 | 0.06 | 0.06 | 86 | 1563.4 |
| 20260508091101 | 71 | 211 | 0.9 | 2.6 | 0.00 | 0.05 | 0.05 | 86 | 1863.3 |
| 20260508090601 | 71 | 149 | 0.9 | 4.3 | 0.00 | 0.05 | 0.05 | 86 | 290.5 |
| 20260508090113 | 71 | 100 | 1.7 | 6.1 | 0.00 | 0.05 | 0.05 | 86 | 798.0 |
| 20260508085600 | 71 | 182 | 2.6 | 6.1 | 0.00 | 0.04 | 0.04 | 86 | 953.2 |
| 20260508085100 | 71 | 195 | 2.6 | 6.1 | 0.00 | 0.04 | 0.04 | 86 | 155.7 |
| 20260508084559 | 71 | 215 | 1.7 | 6.1 | 0.00 | 0.04 | 0.04 | 86 | 290.5 |
| 20260508084101 | 71 | 214 | 4.3 | 6.1 | 0.00 | 0.04 | 0.04 | 86 | 73.9 |
| 20260508083602 | 71 | 173 | 2.6 | 7.0 | 0.00 | 0.04 | 0.04 | 86 | 1780.6 |
| 20260508083101 | 71 | 184 | 3.5 | 7.0 | 0.00 | 0.04 | 0.04 | 86 | 291.7 |
| 20260508082601 | 71 | 221 | 4.3 | 7.0 | 0.00 | 0.04 | 0.04 | 87 | 311.3 |
| 20260508082101 | 71 | 165 | 2.6 | 7.0 | 0.00 | 0.04 | 0.04 | 87 | 715.1 |
| 20260508081605 | 71 | 187 | 1.7 | 7.0 | 0.01 | 0.04 | 0.04 | 87 | 1232.5 |
| 20260508081104 | 71 | 189 | 2.6 | 7.0 | 0.01 | 0.04 | 0.04 | 87 | 622.0 |
| 20260508080601 | 71 | 232 | 2.6 | 6.1 | 0.01 | 0.04 | 0.04 | 87 | 1563.4 |
| 20260508080058 | 71 | 223 | 2.6 | 5.2 | 0.02 | 0.04 | 0.04 | 87 | 404.5 |
| 20260508075558 | 71 | 173 | 2.6 | 7.8 | 0.02 | 0.04 | 0.04 | 87 | 1149.7 |
| 20260508075100 | 71 | 182 | 3.5 | 9.6 | 0.02 | 0.04 | 0.04 | 87 | 539.1 |
| 20260508074612 | 71 | 205 | 3.5 | 9.6 | 0.03 | 0.04 | 0.04 | 87 | 653.0 |
| 20260508074101 | 71 | 232 | 3.5 | 7.8 | 0.03 | 0.03 | 0.03 | 87 | 901.4 |
| 20260508073602 | 71 | 171 | 3.5 | 7.8 | 0.03 | 0.03 | 0.03 | 87 | 1635.8 |
| 20260508073108 | 72 | 212 | 2.6 | 7.8 | 0.03 | 0.03 | 0.03 | 87 | 963.5 |
| 20260508072601 | 72 | 131 | 3.5 | 9.6 | 0.03 | 0.03 | 0.03 | 87 | 1615.1 |
| 20260508072101 | 72 | 185 | 4.3 | 9.6 | 0.03 | 0.03 | 0.03 | 87 | 1708.2 |
| 20260508071605 | 72 | 136 | 3.5 | 8.7 | 0.02 | 0.03 | 0.03 | 87 | 373.4 |
| 20260508071101 | 72 | 195 | 2.6 | 6.1 | 0.02 | 0.03 | 0.03 | 87 | 135.0 |
| 20260508070601 | 72 | 205 | 3.5 | 9.6 | 0.02 | 0.03 | 0.03 | 87 | 322.8 |
| 20260508070104 | 72 | 188 | 4.3 | 9.6 | 0.01 | 0.02 | 0.02 | 86 | 787.6 |
| 20260508065601 | 72 | 198 | 4.3 | 8.7 | 0.01 | 0.02 | 0.02 | 86 | 2111.4 |
| 20260508065102 | 73 | 209 | 3.5 | 10.4 | 0.01 | 0.02 | 0.02 | 86 | 124.6 |
| 20260508064601 | 73 | 186 | 4.3 | 11.3 | 0.00 | 0.01 | 0.01 | 85 | 1542.8 |
| 20260508064101 | 73 | 221 | 6.1 | 11.3 | 0.00 | 0.00 | 0.00 | 85 | 2214.8 |
| 20260508063601 | 74 | 215 | 2.6 | 6.1 | 0.00 | 0.00 | 0.00 | 85 | 374.6 |
| 20260508063100 | 74 | 221 | 3.5 | 9.6 | 0.00 | 0.00 | 0.00 | 84 | 984.2 |
| 20260508062600 | 74 | 190 | 3.5 | 9.6 | 0.00 | 0.00 | 0.00 | 84 | 1542.8 |
| 20260508062100 | 74 | 177 | 5.2 | 9.6 | 0.00 | 0.00 | 0.00 | 84 | 321.6 |
| 20260508061559 | 74 | 232 | 3.5 | 13.9 | 0.00 | 0.00 | 0.00 | 84 | 1625.5 |
| 20260508061058 | 74 | 213 | 7.0 | 13.9 | 0.00 | 0.00 | 0.00 | 84 | 322.8 |
| 20260508060600 | 75 | 209 | 5.2 | 11.3 | 0.00 | 0.00 | 0.00 | 83 | 2132.1 |
| 20260508055557 | 75 | 175 | 5.2 | 11.3 | 0.00 | 0.00 | 0.00 | 83 | 1046.2 |
| 20260508055101 | 75 | 206 | 7.0 | 12.2 | 0.00 | 0.00 | 0.00 | 82 | 300.9 |
| 20260508054601 | 75 | 162 | 7.0 | 12.2 | 0.00 | 0.00 | 0.00 | 82 | 1211.8 |
| 20260508054102 | 75 | 205 | 7.0 | 11.3 | 0.00 | 0.00 | 0.00 | 82 | 62.3 |
| 20260508053604 | 75 | 209 | 6.1 | 11.3 | 0.00 | 0.00 | 0.00 | 83 | 51.9 |
| 20260508053120 | 75 | 197 | 4.3 | 9.6 | 0.00 | 0.00 | 0.00 | 83 | 539.1 |
| 20260508052603 | 75 | 220 | 5.2 | 10.4 | 0.00 | 0.00 | 0.00 | 83 | 63.5 |
| 20260508052100 | 76 | 169 | 7.0 | 10.4 | 0.00 | 0.00 | 0.00 | 82 | 570.2 |
| 20260508051559 | 76 | 172 | 3.5 | 11.3 | 0.00 | 0.00 | 0.00 | 82 | 383.8 |
| 20260508051101 | 76 | 163 | 7.0 | 13.9 | 0.00 | 0.00 | 0.00 | 82 | 302.1 |
| 20260508050601 | 76 | 205 | 3.5 | 13.9 | 0.00 | 0.00 | 0.00 | 82 | 559.8 |
| 20260508050101 | 77 | 202 | 5.2 | 13.9 | 0.00 | 0.00 | 0.00 | 82 | 322.8 |
| 20260508045600 | 77 | 173 | 6.1 | 13.0 | 0.00 | 0.00 | 0.00 | 81 | 135.0 |
| 20260508045100 | 77 | 173 | 7.0 | 12.2 | 0.00 | 0.00 | 0.00 | 81 | 239.9 |
| 20260508044603 | 77 | 223 | 3.5 | 13.0 | 0.00 | 0.00 | 0.00 | 81 | 1811.6 |
| 20260508044101 | 77 | 147 | 7.8 | 13.0 | 0.00 | 0.00 | 0.00 | 81 | 321.6 |
| 20260508043601 | 77 | 182 | 7.0 | 10.4 | 0.00 | 0.00 | 0.00 | 81 | 477.0 |
| 20260508043105 | 77 | 198 | 6.1 | 10.4 | 0.00 | 0.00 | 0.00 | 81 | 715.1 |
| 20260508042601 | 77 | 217 | 7.0 | 10.4 | 0.00 | 0.00 | 0.00 | 81 | 405.7 |
| 20260508042103 | 78 | 232 | 4.3 | 7.8 | 0.00 | 0.00 | 0.00 | 81 | 704.8 |
| 20260508041617 | 78 | 225 | 3.5 | 7.0 | 0.00 | 0.00 | 0.00 | 81 | 63.5 |
| 20260508041103 | 78 | 207 | 3.5 | 8.7 | 0.00 | 0.00 | 0.00 | 81 | 321.6 |
| 20260508040601 | 78 | 164 | 2.6 | 8.7 | 0.00 | 0.00 | 0.00 | 81 | 146.5 |
| 20260508040110 | 78 | 229 | 6.1 | 8.7 | 0.00 | 0.00 | 0.00 | 80 | 311.3 |
| 20260508035601 | 78 | 222 | 5.2 | 9.6 | 0.00 | 0.00 | 0.00 | 81 | 466.6 |
| 20260508035101 | 78 | 196 | 4.3 | 9.6 | 0.00 | 0.00 | 0.00 | 81 | 549.5 |
| 20260508034603 | 78 | 223 | 2.6 | 12.2 | 0.00 | 0.00 | 0.00 | 81 | 291.7 |
| 20260508034101 | 77 | 227 | 7.0 | 12.2 | 0.00 | 0.00 | 0.00 | 81 | 2028.7 |
| 20260508033600 | 77 | 188 | 7.0 | 10.4 | 0.00 | 0.00 | 0.00 | 81 | 642.7 |
| 20260508033057 | 77 | 186 | 4.3 | 13.9 | 0.00 | 0.00 | 0.00 | 81 | 124.6 |
| 20260508032558 | 78 | 147 | 7.0 | 13.9 | 0.00 | 0.00 | 0.00 | 80 | 41.5 |
| 20260508032103 | 78 | 188 | 7.8 | 13.9 | 0.00 | 0.00 | 0.00 | 80 | 1956.3 |
| 20260508031601 | 78 | 190 | 7.8 | 13.0 | 0.00 | 0.00 | 0.00 | 81 | 1149.7 |
| 20260508031101 | 78 | 207 | 6.1 | 11.3 | 0.00 | 0.00 | 0.00 | 80 | 125.8 |
| 20260508030601 | 78 | 224 | 5.2 | 8.7 | 0.00 | 0.00 | 0.00 | 80 | 1201.4 |
| 20260508030104 | 79 | 177 | 3.5 | 8.7 | 0.00 | 0.00 | 0.00 | 80 | 217.9 |
| 20260508025600 | 78 | 254 | 2.6 | 7.8 | 0.00 | 0.00 | 0.00 | 81 | 1118.7 |
| 20260508025101 | 78 | 225 | 2.6 | 7.8 | 0.00 | 0.00 | 0.00 | 81 | 1035.9 |
| 20260508024606 | 78 | 232 | 4.3 | 10.4 | 0.00 | 0.00 | 0.00 | 81 | 880.7 |
| 20260508024101 | 78 | 225 | 5.2 | 10.4 | 0.00 | 0.00 | 0.00 | 81 | 1780.6 |
| 20260508023600 | 78 | 198 | 6.1 | 14.8 | 0.00 | 0.00 | 0.00 | 81 | 1387.6 |
| 20260508023102 | 78 | 208 | 7.0 | 14.8 | 0.00 | 0.00 | 0.00 | 81 | 2039.1 |
| 20260508022602 | 79 | 198 | 5.2 | 10.4 | 0.00 | 0.00 | 0.00 | 80 | 394.1 |
| 20260508022059 | 79 | 167 | 3.5 | 7.0 | 0.00 | 0.00 | 0.00 | 79 | 1480.7 |
| 20260508021558 | 78 | 183 | 2.6 | 7.0 | 0.00 | 0.00 | 0.00 | 81 | 487.3 |
| 20260508021058 | 78 | 184 | 1.7 | 7.0 | 0.00 | 0.00 | 0.00 | 80 | 466.6 |
| 20260508020558 | 78 | 218 | 4.3 | 10.4 | 0.00 | 0.00 | 0.00 | 80 | 72.7 |
| 20260508015558 | 77 | 192 | 7.0 | 13.0 | 0.00 | 0.00 | 0.00 | 81 | 953.2 |
| 20260508015059 | 78 | 203 | 6.1 | 13.0 | 0.00 | 0.00 | 0.00 | 81 | 632.3 |
| 20260508014558 | 78 | 216 | 6.1 | 13.0 | 0.00 | 0.00 | 0.00 | 80 | 1532.4 |
| 20260508014058 | 78 | 194 | 5.2 | 10.4 | 0.00 | 0.00 | 0.00 | 80 | 1542.8 |
| 20260508013600 | 79 | 217 | 6.1 | 10.4 | 0.00 | 0.00 | 0.00 | 80 | 2039.1 |
| 20260508013058 | 79 | 214 | 5.2 | 8.7 | 0.00 | 0.00 | 0.00 | 80 | 135.0 |
| 20260508012602 | 78 | 238 | 4.3 | 9.6 | 0.00 | 0.00 | 0.00 | 80 | 322.8 |
| 20260508012059 | 78 | 234 | 6.1 | 9.6 | 0.00 | 0.00 | 0.00 | 80 | 487.3 |
| 20260508011602 | 78 | 234 | 3.5 | 9.6 | 0.00 | 0.00 | 0.00 | 80 | 1315.2 |
| 20260508011058 | 78 | 216 | 6.1 | 8.7 | 0.00 | 0.00 | 0.00 | 80 | 725.5 |
| 20260508010558 | 78 | 217 | 4.3 | 8.7 | 0.00 | 0.00 | 0.00 | 80 | 1129.0 |
| 20260508010101 | 78 | 260 | 5.2 | 10.4 | 0.00 | 0.00 | 0.00 | 80 | 1884.0 |
| 20260508005558 | 77 | 210 | 6.1 | 10.4 | 0.00 | 0.00 | 0.00 | 81 | 735.8 |
| 20260508005102 | 77 | 251 | 5.2 | 9.6 | 0.00 | 0.00 | 0.00 | 81 | 1646.2 |
| 20260508004600 | 77 | 200 | 6.1 | 10.4 | 0.00 | 0.00 | 0.00 | 82 | 1790.9 |
| 20260508004059 | 76 | 217 | 5.2 | 10.4 | 0.00 | 0.00 | 0.00 | 82 | 291.7 |
| 20260508003601 | 76 | 176 | 6.1 | 9.6 | 0.00 | 0.00 | 0.00 | 82 | 145.3 |
| 20260508003105 | 76 | 211 | 5.2 | 9.6 | 0.00 | 0.00 | 0.00 | 83 | 715.1 |
| 20260508002600 | 76 | 219 | 3.5 | 9.6 | 0.00 | 0.00 | 0.00 | 84 | 1625.5 |
| 20260508002100 | 75 | 196 | 3.5 | 9.6 | 0.00 | 0.00 | 0.00 | 84 | 1304.9 |
| 20260508001558 | 75 | 190 | 2.6 | 7.8 | 0.00 | 0.00 | 0.00 | 85 | 239.9 |
| 20260508001059 | 75 | 214 | 1.7 | 9.6 | 0.00 | 0.00 | 0.00 | 84 | 973.8 |
| 20260508000559 | 75 | 177 | 4.3 | 11.3 | 0.00 | 0.00 | 0.00 | 84 | 487.3 |
| 20260508000100 | 75 | 186 | 5.2 | 13.9 | 0.00 | 0.00 | 0.00 | 83 | 72.7 |
| 20260507235559 | 76 | 195 | 7.8 | 13.9 | 0.00 | 0.00 | 0.00 | 81 | 1066.9 |
| 20260507235101 | 77 | 178 | 2.6 | 7.0 | 0.00 | 0.00 | 0.00 | 80 | 395.3 |
| 20260507234600 | 77 | 224 | 3.5 | 8.7 | 0.00 | 0.00 | 0.00 | 80 | 1149.7 |
| 20260507234100 | 77 | 263 | 4.3 | 8.7 | 0.00 | 0.00 | 0.00 | 80 | 1625.5 |
| 20260507233600 | 77 | 195 | 4.3 | 12.2 | 0.00 | 0.00 | 0.00 | 80 | 622.0 |
| 20260507233105 | 77 | 223 | 4.3 | 12.2 | 0.00 | 0.00 | 0.00 | 80 | 466.6 |
| 20260507232600 | 77 | 186 | 4.3 | 12.2 | 0.00 | 0.00 | 0.00 | 80 | 870.4 |
| 20260507232058 | 77 | 248 | 3.5 | 10.4 | 0.00 | 0.00 | 0.00 | 80 | 1201.4 |
| 20260507231600 | 77 | 191 | 2.6 | 7.0 | 0.00 | 0.00 | 0.00 | 81 | 135.0 |
| 20260507231100 | 77 | 215 | 3.5 | 8.7 | 0.00 | 0.00 | 0.00 | 81 | 1780.6 |
| 20260507230602 | 76 | 208 | 1.7 | 8.7 | 0.00 | 0.00 | 0.00 | 82 | 456.3 |
| 20260507225559 | 76 | 187 | 3.5 | 8.7 | 0.00 | 0.00 | 0.00 | 82 | 1801.2 |
| 20260507225059 | 75 | 211 | 3.5 | 8.7 | 0.00 | 0.00 | 0.00 | 82 | 302.1 |
| 20260507224601 | 75 | 186 | 4.3 | 9.6 | 0.00 | 0.00 | 0.00 | 82 | 2194.1 |
| 20260507224059 | 75 | 158 | 4.3 | 9.6 | 0.00 | 0.00 | 0.00 | 81 | 1780.6 |
| 20260507223601 | 75 | 184 | 3.5 | 7.8 | 0.00 | 0.00 | 0.00 | 82 | 1966.7 |
| 20260507223103 | 75 | 217 | 0.9 | 5.2 | 0.00 | 0.00 | 0.00 | 82 | 1625.5 |
| 20260507222558 | 75 | 185 | 3.5 | 5.2 | 0.00 | 0.00 | 0.00 | 82 | 1625.5 |
| 20260507222058 | 74 | 236 | 1.7 | 3.5 | 0.00 | 0.00 | 0.00 | 83 | 383.8 |
| 20260507221558 | 74 | 277 | 0.9 | 3.5 | 0.00 | 0.00 | 0.00 | 83 | 1801.2 |
| 20260507221101 | 74 | 284 | 1.7 | 6.1 | 0.00 | 0.00 | 0.00 | 84 | 2039.1 |
| 20260507220558 | 74 | 281 | 1.7 | 7.0 | 0.00 | 0.00 | 0.00 | 84 | 1066.9 |
| 20260507220059 | 74 | 87 | 3.5 | 7.0 | 0.00 | 0.00 | 0.00 | 84 | 291.7 |
| 20260507215559 | 73 | 238 | 2.6 | 7.0 | 0.00 | 0.00 | 0.00 | 83 | 302.1 |
| 20260507215059 | 73 | 21 | 0.9 | 7.0 | 0.00 | 0.00 | 0.00 | 83 | 1625.5 |
| 20260507214609 | 74 | 129 | 1.7 | 7.0 | 0.00 | 0.00 | 0.00 | 83 | 1532.4 |
| 20260507214058 | 74 | 271 | 3.5 | 7.0 | 0.00 | 0.00 | 0.00 | 83 | 1977.0 |
| 20260507213558 | 73 | 201 | 1.7 | 4.3 | 0.00 | 0.00 | 0.00 | 83 | 1139.4 |
| 20260507213106 | 73 | 0 | 1.7 | 6.1 | 0.00 | 0.00 | 0.00 | 83 | 984.2 |
| 20260507212602 | 73 | 166 | 2.6 | 6.1 | 0.00 | 0.00 | 0.00 | 83 | 1718.5 |
| 20260507212103 | 73 | 291 | 0.9 | 7.0 | 0.00 | 0.00 | 0.00 | 83 | 383.8 |
| 20260507211558 | 73 | 234 | 2.6 | 7.0 | 0.00 | 0.00 | 0.00 | 84 | 146.5 |
| 20260507211057 | 72 | 255 | 1.7 | 6.1 | 0.00 | 0.00 | 0.00 | 84 | 1708.2 |
| 20260507210559 | 72 | 225 | 2.6 | 6.1 | 0.00 | 0.00 | 0.00 | 84 | 155.7 |